Regional Weather Roundup
Issued by NWS

Home | Current Version | Previous Version | Text Only | Print | Product List | Glossary On
Versions: 1 2 3 4 5 6 7 8 9 10 11 12 13 14 15 16 17 18 19 20 21 22 23 24 25 26 27 28 29 30 31 32 33 34 35 36 37 38 39 40 41 42 43 44 45 46 47 48 49 50
000
ASUS43 KLMK 041402
RWRKY
KENTUCKY REGIONAL WEATHER ROUNDUP
NATIONAL WEATHER SERVICE LOUISVILLE KY
1000 AM EDT SAT JUL 04 2015

NOTE "FAIR" INDICATES FEW OR NO CLOUDS BELOW 12,000 FEET
WITH NO SIGNIFICANT WEATHER AND/OR OBSTRUCTIONS TO VISIBILITY.

KYZ001>023-026-027-061>063-070>075-041500-
WESTERN AND SOUTH CENTRAL KENTUCKY

CITY           SKY/WX    TMP DP  RH WIND       PRES   REMARKS
PADUCAH        CLOUDY    72  68  87 E6        29.98S FOG
HENDERSON      SUNNY     72  64  78 NE7       29.99R
OWENSBORO      MOSUNNY   73  68  84 CALM      30.00R
HOPKINSVILLE   CLOUDY    74  70  87 N1        29.99R
BOWLING GREEN  CLOUDY    74  68  81 W3        30.00R
GLASGOW        NOT AVBL
$$

KYZ024-025-028>034-038-045-046-053-041500-
NORTH CENTRAL KENTUCKY

CITY           SKY/WX    TMP DP  RH WIND       PRES   REMARKS
LOUISVILLE/SDF CLOUDY    74  66  76 NE3       29.99S
LOUISVILLE/LOU CLOUDY    74  66  76 NE6       30.00S
FORT KNOX      LGT RAIN  72  68  88 CALM      29.98S
$$

KYZ035>037-039>044-047>052-055>060-089>105-041500-
NORTHEAST KENTUCKY

CITY           SKY/WX    TMP DP  RH WIND       PRES   REMARKS
LEXINGTON      CLOUDY    71  66  84 N3        30.01R HAZE
COVINGTON      MOSUNNY   72  60  66 NE6       30.01R
FRANKFORT      CLOUDY    70  65  84 CALM      30.00S
$$

KYZ054-064>069-076>088-106>120-041500-
SOUTHEAST KENTUCKY

CITY           SKY/WX    TMP DP  RH WIND       PRES   REMARKS
JACKSON        CLOUDY    69  66  90 CALM      30.01R
LONDON         PTSUNNY   73  65  75 W8        30.01S
SOMERSET       NOT AVBL
MIDDLESBORO    LGT RAIN  69  68  96 CALM      30.03R
MONTICELLO     PTSUNNY   72  72 100 CALM      30.04R
$$



USA.gov is the U.S. government's official web portal to all federal, state and local government web resources and services.